Погода в Наумовке

Россия / Томская область     56°45′33″N   85°06′38″E
темп.,
°C
ветер,
м/с
пор.,
м/с
влажн.,
%
обл.,
%
осадки,
мм/ч
давл.,
гПа
погр.,
м
5 декабря, вс
вс501:00−6юз41194100 0.3 1026652
04:00−7юз41195100 0.1 1027513
07:00−6ююз41194100 0.3 1026516
10:00−4ююз51394100 0.9 1024633
13:00−2ююз61493100 1.1 1022899
16:00−1юз61391100 0.2 1019841
19:00−2ююз61593100 0.3 1018777
22:000юз61693100 0.0 1017805
6 декабря, пн
пн601:000юз61592100 0.0 1016830
04:00−1юз61591100 0.0 1016678
07:00−2юз61691100 0.0 1015644
10:00−2юз61590100 0.0 1016719
13:00−1юз51291100 0.0 1016664
16:00−1юз41092100 0.0 1016532
19:00−3ююз3994100 0.0 1016376
22:00−4ю41092100 0.0 1015400
7 декабря, вт
вт701:00−5ю41193100 0.0 1013416
04:00−4ююз41196100 0.3 1011513
07:00−3юз41196100 1.7 1010675
10:00−3юз41096100 1.3 1010766
13:00−3з4895100 2.1 1011652
16:00−8сз4894100 0.9 1015560
19:00−11зсз4993100 1.4 1020706
22:00−13зсз4992100 0.2 1025628
8 декабря, ср
ср801:00−16з3894100 0.3 1029443
04:00−20юз2610056 0.0 1032120
07:00−22ююз379823 0.0 1034143
10:00−23ююз399717 0.0 1035175
13:00−19ююз410906 0.0 1035301
16:00−18юз499032 0.0 1035320
19:00−21ююз379864 0.0 1036190
22:00−20ююз259991 0.1 1036182
9 декабря, чт
чт901:00−20ююз2410093 0.1 103898
04:00−21ююз2510099 0.1 1038104
07:00−22ююз26100100 0.1 1040136
10:00−22ююз3799100 0.1 1041193
13:00−20юз4896100 0.1 1041306
16:00−19ююз41095100 0.0 1041354
19:00−19ююз41295100 0.0 1041337
22:00−18ююз41294100 0.0 1041386